weather.gov     
National Weather Service

Terminal Aerodrome Forecast
NWS Homepage
This page is being discontinued on March 12, 2014.
The same data is available at this site. Please update your bookmarks.
Thank you, and we apologize for the inconvenience.
Please send an email to SR-SRH.Webmaster@noaa.gov with any concerns.


Current Version
Previous Version:    01  02  03  04  05  06  07  08  09  10  11  12  13  14  15  16  17  18  19  20  21  22  23  24  25  
[Printable]
502
FTUS45 KCYS 301140
TAFAIA
TAF
KAIA 301140Z 3012/3112 15005KT P6SM OVC250
     FM301800 24007KT P6SM BKN200
     FM302300 04006KT P6SM OVC150=


502
FTUS45 KCYS 301140
TAFAIA
TAF
KAIA 301140Z 3012/3112 15005KT P6SM OVC250
     FM301800 24007KT P6SM BKN200
     FM302300 04006KT P6SM OVC150=




U.S. Dept. of Commerce
NOAA National Weather Service
1325 East West Highway
Silver Spring, MD 20910
E-mail: w-nws.webmaster@noaa.gov
Page last modified: May 16, 2007
NATIONAL WEATHER SERVICE: for Safety, for Work, for Fun - FOR LIFE